This demonstration page uses our WeatherBlox Daily Observations layout. Learn more.

Left ArrowRight Arrow

39.08367, -84.50855

Hourly Observations for August 25, 2015

Temp ( °F °C ) Dew Point ( °F °C ) Humidity (%) Winds ( mph kmh ) Pressure ( in mb ) Visibility ( mi km ) Precip ( " mm )
12:53 am 00:53 Clear 59 15 56 13.3 90 90 N N/A 29.99 1016 10 16 N/A
1:53 am 01:53 Clear 57 13.9 56 13.3 96 96 N N/A 29.99 1016 10 16 N/A
2:53 am 02:53 Clear 55 12.8 55 12.8 100 100 N N/A 29.99 1016 10 16 N/A
3:53 am 03:53 Clear 54 12.2 54 12.2 100 100 N N/A 29.98 1015 10 16 N/A
4:53 am 04:53 Clear 54 12.2 53 11.7 97 97 N N/A 29.99 1016 10 16 N/A
5:08 am 05:08 Clear with Mist and Fog 52 11 52 11 100 100 N N/A 30.00 1016 2 3 N/A
5:18 am 05:18 Clear with Mist and Fog 54 12 54 12 100 100 N N/A 30.00 1016 1 1 N/A
5:23 am 05:23 Clear with Mist and Fog 53 11.7 53 11.7 100 100 N N/A 30.00 1016 4 6 N/A
5:53 am 05:53 Clear 53 11.7 53 11.7 100 100 N N/A 30.00 1016 10 16 N/A
6:53 am 06:53 Clear 53 11.7 53 11.7 100 100 N N/A 30.02 1017 10 16 N/A
7:53 am 07:53 Sunny 56 13.3 54 12.2 93 93 N N/A 30.02 1017 10 16 N/A
8:53 am 08:53 Sunny 61 16.1 54 12.2 78 78 W 5 7 30.04 1017 10 16 N/A
9:53 am 09:53 Sunny 66 18.9 53 11.7 63 63 NNW 7 11 30.05 1018 10 16 N/A
10:53 am 10:53 Sunny 68 20 48 8.9 49 49 undefined N/A 30.05 1018 10 16 N/A
11:53 am 11:53 Partly Cloudy 69 20.6 49 9.4 49 49 N 8 13 30.05 1018 10 16 N/A
12:53 pm 12:53 Mostly Cloudy 71 21.7 50 10 47 47 W 13 20 30.05 1018 10 16 N/A
1:53 pm 13:53 Mostly Cloudy 70 21.1 50 10 49 49 NW 9 15 30.03 1017 10 16 N/A
2:53 pm 14:53 Mostly Cloudy 71 21.7 52 11.1 51 51 NW 8 13 30.03 1017 10 16 N/A
3:53 pm 15:53 Cloudy 70 21.1 51 10.6 51 51 NNW 9 15 30.03 1017 10 16 N/A
4:53 pm 16:53 Mostly Cloudy 70 21.1 52 11.1 53 53 WNW 7 11 30.03 1017 10 16 N/A
5:53 pm 17:53 Mostly Cloudy 70 21.1 51 10.6 51 51 WNW 5 7 30.03 1017 10 16 N/A
6:53 pm 18:53 Mostly Cloudy 70 21.1 53 11.7 55 55 VRB 6 9 30.03 1017 10 16 N/A
7:53 pm 19:53 Mostly Cloudy 69 20.6 52 11.1 55 55 WNW 3 6 30.03 1017 10 16 N/A
8:53 pm 20:53 Mostly Cloudy 69 20.6 52 11.1 55 55 WNW 3 6 30.03 1017 10 16 N/A
9:53 pm 21:53 Mostly Cloudy 64 17.8 57 13.9 78 78 N N/A 30.04 1017 10 16 N/A
10:53 pm 22:53 Cloudy 63 17.2 57 13.9 81 81 SSW 3 6 30.06 1018 10 16 N/A
11:53 pm 23:53 Mostly Cloudy 61 16.1 58 14.4 90 90 N N/A 30.05 1018 10 16 N/A

Powered by AerisWeather